Flag for South Africa Weather past 2 weeks in Durban, South Africa

Now
64 °F

Partly cloudy.


Feels Like: 64 °F
Forecast: 59 / 65 °F
Wind: 1 mph from North

Location: King Shaka International Airport

Current Time: Jul 7, 2015 at 12:13:45 AM

Latest Report: Jul 6, 2015 at 11:00 PM


Visibility: N/A

Pressure: 30.51 "Hg

Humidity: 88%

Dew point: 61 °F

Location of DurbanLocation

Historic Weather in Durban — Graph

°F

Durban temperature yesterday

Maximum temperature yesterday: 73 °F (at 11:00 AM)
Minimum temperature yesterday: 52 °F (at 4:00 AM)
Average temperature yesterday: 65 °F

Past Weeks' High & Low Weather Summary

 TemperatureHumidityPressure
High91 °F (Jun 28, 2:00 PM)94% (Jul 1, 5:00 AM)30.51 "Hg (Jul 1, 5:00 AM)
Low41 °F (Jul 3, 7:00 AM)18% (Jun 24, 1:00 PM)29.92 "Hg (Jun 24, 3:00 PM)
Average62 °F69%30.21 "Hg
* Reported Jun 21 11:00 PM — Jul 6 11:00 PM, Durban, Weather by CustomWeather, © 2015

Note: Actual official high and low records may vary slightly from our data, if they occured in-between our weather recording intervals... More about our weather records

Advertising

Durban weather history for previous 24 hours

 ConditionsComfort  
Time TempWeatherWind HumidityBarometerVisibility
11:00 PM
Mon, Jul 6
64 °FPartly cloudy.1 mph88%30.51 "HgN/A
10:00 PM64 °FPassing clouds.2 mph88%30.51 "HgN/A
9:00 PM64 °FLight rain. Mostly cloudy.2 mph94%30.48 "Hg5 mi
8:00 PM64 °FPassing clouds.2 mph88%30.48 "HgN/A
7:00 PM64 °FLight rain. Passing clouds.9 mph88%30.45 "HgN/A
6:00 PM64 °FLight rain. Passing clouds.10 mph88%30.42 "HgN/A
5:00 PM68 °FLight rain. Partly cloudy.6 mph78%30.42 "HgN/A
4:00 PM70 °FPartly sunny.14 mph73%30.39 "HgN/A
3:00 PM70 °FPartly sunny.18 mph73%30.36 "HgN/A
2:00 PM72 °FScattered clouds.15 mph69%30.36 "HgN/A
1:00 PM72 °FScattered clouds.15 mph69%30.36 "HgN/A
12:00 PM73 °FBroken clouds.20 mph65%30.36 "HgN/A
11:00 AM73 °FBroken clouds.18 mph65%30.36 "HgN/A
10:00 AM72 °FBroken clouds.17 mph65%30.33 "HgN/A
9:00 AM68 °FBroken clouds.12 mph64%30.30 "HgN/A
8:00 AM63 °FSunny.3 mph52%30.27 "Hg10 mi
7:00 AM59 °FSunny.7 mph55%30.24 "Hg10 mi
6:00 AM59 °FSunny.6 mph55%30.21 "Hg10 mi
5:00 AM59 °FClear.5 mph55%30.18 "Hg10 mi
4:00 AM52 °FClear.2 mph77%30.15 "Hg10 mi
3:00 AM63 °FClear.6 mph56%30.15 "Hg10 mi
2:00 AM61 °FClear.3 mph63%30.18 "Hg10 mi
1:00 AM61 °FClear.5 mph72%30.18 "Hg10 mi
12:00 AM63 °FClear.6 mph77%30.18 "Hg10 mi
Weather by CustomWeather, © 2015

See weather overviewHow to use our weather pages